Time,TemperatureF,DewpointF,PressureIn,WindDirection,WindDirectionDegrees,WindSpeedMPH,WindSpeedGustMPH,Humidity,HourlyPrecipIn,Conditions,Clouds,dailyrainin,SoftwareType,DateUTC
2013-11-20 00:00:00,55.9,34.4,30.01,East,98,3.6,6.9,44,0.00,,---,0.00,VWS V14.00,2013-11-20 06:00:00,
2013-11-20 00:10:00,55.8,34.8,30.01,SSE,160,5.8,8.3,45,0.00,,---,0.00,VWS V14.00,2013-11-20 06:10:00,
2013-11-20 00:20:00,55.4,34.4,30.01,ESE,114,2.7,6.3,45,0.00,,---,0.00,VWS V14.00,2013-11-20 06:20:00,
2013-11-20 00:34:00,55.2,34.3,30.01,SE,132,0.0,7.4,45,0.00,,---,0.00,VWS V14.00,2013-11-20 06:34:00,
2013-11-20 00:40:00,54.9,34.5,30.01,SSW,207,2.7,5.8,46,0.00,,---,0.00,VWS V14.00,2013-11-20 06:40:00,
2013-11-20 00:50:00,54.5,34.2,30.01,South,188,4.0,5.8,46,0.00,,---,0.00,VWS V14.00,2013-11-20 06:50:00,
2013-11-20 01:04:00,54.3,34.5,30.01,SSE,167,5.4,6.9,47,0.00,,---,0.00,VWS V14.00,2013-11-20 07:04:00,
2013-11-20 01:10:00,54.3,34.5,29.98,South,185,4.0,7.4,47,0.00,,---,0.00,VWS V14.00,2013-11-20 07:10:00,
2013-11-20 01:20:00,54.3,34.5,29.98,SW,219,6.9,7.4,47,0.00,,---,0.00,VWS V14.00,2013-11-20 07:20:00,
2013-11-20 01:34:00,54.5,34.7,29.98,SSW,194,4.9,7.8,47,0.00,,---,0.00,VWS V14.00,2013-11-20 07:34:00,
2013-11-20 01:40:00,54.5,34.7,29.98,SSW,196,4.5,7.8,47,0.00,,---,0.00,VWS V14.00,2013-11-20 07:40:00,
2013-11-20 01:50:00,54.3,34.5,29.98,SSW,200,4.9,8.7,47,0.00,,---,0.00,VWS V14.00,2013-11-20 07:50:00,
2013-11-20 02:00:00,54.0,34.2,29.98,SSE,163,5.4,8.3,47,0.00,,---,0.00,VWS V14.00,2013-11-20 08:00:00,
2013-11-20 02:10:00,53.8,34.0,29.98,South,181,3.6,7.8,47,0.00,,---,0.00,VWS V14.00,2013-11-20 08:10:00,
2013-11-20 02:20:00,53.8,34.0,29.98,ESE,118,7.4,9.2,47,0.00,,---,0.00,VWS V14.00,2013-11-20 08:20:00,
2013-11-20 02:30:00,54.0,34.2,29.98,WSW,242,3.6,10.1,47,0.00,,---,0.00,VWS V14.00,2013-11-20 08:30:00,
2013-11-20 02:40:00,53.6,33.9,29.98,SSW,197,3.6,9.2,47,0.00,,---,0.00,VWS V14.00,2013-11-20 08:40:00,
2013-11-20 02:50:00,53.4,33.7,29.98,South,171,4.5,7.8,47,0.00,,---,0.00,VWS V14.00,2013-11-20 08:50:00,
2013-11-20 03:00:00,53.2,33.5,30.01,SSW,194,2.7,7.8,47,0.00,,---,0.00,VWS V14.00,2013-11-20 09:00:00,
2013-11-20 03:10:00,53.1,33.9,30.01,SSW,212,6.7,6.9,48,0.00,,---,0.00,VWS V14.00,2013-11-20 09:10:00,
2013-11-20 03:20:00,52.7,33.6,30.01,South,189,6.9,7.4,48,0.00,,---,0.00,VWS V14.00,2013-11-20 09:20:00,
2013-11-20 03:30:00,52.5,33.9,29.98,ESE,118,3.1,7.8,49,0.00,,---,0.00,VWS V14.00,2013-11-20 09:30:00,
2013-11-20 03:44:00,52.3,33.8,30.01,SSW,198,3.6,7.4,49,0.00,,---,0.00,VWS V14.00,2013-11-20 09:44:00,
2013-11-20 03:50:00,52.0,33.4,30.01,South,187,3.1,6.9,49,0.00,,---,0.00,VWS V14.00,2013-11-20 09:50:00,
2013-11-20 04:00:00,51.8,33.8,29.98,SSW,201,4.9,7.4,50,0.00,,---,0.00,VWS V14.00,2013-11-20 10:00:00,
2013-11-20 04:14:00,51.6,33.6,29.98,SSE,150,4.5,8.3,50,0.00,,---,0.00,VWS V14.00,2013-11-20 10:14:00,
2013-11-20 04:20:00,51.4,33.4,29.98,SE,142,5.4,7.8,50,0.00,,---,0.00,VWS V14.00,2013-11-20 10:20:00,
2013-11-20 04:30:00,51.1,33.6,29.98,ESE,122,3.6,6.9,51,0.00,,---,0.00,VWS V14.00,2013-11-20 10:30:00,
2013-11-20 04:44:00,50.9,33.4,29.98,SW,227,4.5,7.8,51,0.00,,---,0.00,VWS V14.00,2013-11-20 10:44:00,
2013-11-20 04:50:00,50.7,33.8,29.98,SSW,192,3.6,6.9,52,0.00,,---,0.00,VWS V14.00,2013-11-20 10:50:00,
2013-11-20 05:00:00,50.5,33.6,29.98,SSW,196,4.5,6.3,52,0.00,,---,0.00,VWS V14.00,2013-11-20 11:00:00,
2013-11-20 05:10:00,50.2,33.7,29.98,SW,220,4.9,6.7,53,0.00,,---,0.00,VWS V14.00,2013-11-20 11:10:00,
2013-11-20 05:20:00,50.2,33.7,29.98,SE,133,4.0,7.4,53,0.00,,---,0.00,VWS V14.00,2013-11-20 11:20:00,
2013-11-20 05:30:00,50.0,34.0,29.98,SSE,153,4.0,5.8,54,0.00,,---,0.00,VWS V14.00,2013-11-20 11:30:00,
2013-11-20 05:40:00,49.8,33.9,29.98,SE,129,4.0,7.4,54,0.00,,---,0.00,VWS V14.00,2013-11-20 11:40:00,
2013-11-20 05:50:00,49.8,33.9,29.98,SSW,210,5.4,9.2,54,0.00,,---,0.00,VWS V14.00,2013-11-20 11:50:00,
2013-11-20 06:00:00,50.0,34.5,29.98,SE,136,3.1,7.4,55,0.00,,---,0.00,VWS V14.00,2013-11-20 12:00:00,
2013-11-20 06:10:00,50.4,34.8,29.98,South,186,6.3,8.7,55,0.00,,---,0.00,VWS V14.00,2013-11-20 12:10:00,
2013-11-20 06:20:00,50.7,35.2,29.98,SE,132,3.6,8.7,55,0.00,,---,0.00,VWS V14.00,2013-11-20 12:20:00,
2013-11-20 06:30:00,51.1,35.5,29.98,SSW,203,3.6,7.8,55,0.00,,---,0.00,VWS V14.00,2013-11-20 12:30:00,
2013-11-20 06:40:00,51.3,35.7,29.98,South,184,4.9,11.6,55,0.00,,---,0.00,VWS V14.00,2013-11-20 12:40:00,
2013-11-20 06:50:00,51.3,35.7,29.98,SE,137,4.5,8.7,55,0.00,,---,0.00,VWS V14.00,2013-11-20 12:50:00,
2013-11-20 07:00:00,51.3,35.7,29.98,SSW,195,4.9,12.5,55,0.00,,---,0.00,VWS V14.00,2013-11-20 13:00:00,
2013-11-20 07:10:00,51.3,35.7,29.98,ESE,120,4.0,8.7,55,0.00,,---,0.00,VWS V14.00,2013-11-20 13:10:00,
2013-11-20 07:20:00,51.6,36.0,29.98,SE,137,3.6,8.3,55,0.00,,---,0.00,VWS V14.00,2013-11-20 13:20:00,
2013-11-20 07:30:00,51.8,36.2,29.98,SSE,161,7.8,7.8,55,0.00,,---,0.00,VWS V14.00,2013-11-20 13:30:00,
2013-11-20 07:40:00,52.0,36.3,29.98,SSW,195,6.3,8.3,55,0.00,,---,0.00,VWS V14.00,2013-11-20 13:40:00,
2013-11-20 07:50:00,52.2,36.0,29.98,SSE,157,0.0,9.2,54,0.00,,---,0.00,VWS V14.00,2013-11-20 13:50:00,
2013-11-20 08:00:00,52.3,36.2,29.98,ESE,113,6.3,7.4,54,0.00,,---,0.00,VWS V14.00,2013-11-20 14:00:00,
2013-11-20 08:10:00,52.5,35.9,29.98,SSE,163,4.9,7.4,53,0.00,,---,0.00,VWS V14.00,2013-11-20 14:10:00,
2013-11-20 08:20:00,52.7,36.1,29.98,SE,131,4.0,7.4,53,0.00,,---,0.00,VWS V14.00,2013-11-20 14:20:00,
2013-11-20 08:30:00,53.1,35.9,29.98,ESE,110,0.0,7.4,52,0.00,,---,0.00,VWS V14.00,2013-11-20 14:30:00,
2013-11-20 08:44:00,53.1,35.4,30.01,East,98,3.6,6.9,51,0.00,,---,0.00,VWS V14.00,2013-11-20 14:44:00,
2013-11-20 08:50:00,53.2,35.6,30.01,SE,137,4.0,8.3,51,0.00,,---,0.00,VWS V14.00,2013-11-20 14:50:00,
2013-11-20 09:00:00,53.4,35.3,29.98,SE,136,4.9,8.3,50,0.00,,---,0.00,VWS V14.00,2013-11-20 15:00:00,
2013-11-20 09:10:00,53.6,35.4,29.98,South,177,4.5,7.4,50,0.00,,---,0.00,VWS V14.00,2013-11-20 15:10:00,
2013-11-20 09:24:00,54.1,35.4,29.98,South,189,0.0,6.3,49,0.00,,---,0.00,VWS V14.00,2013-11-20 15:24:00,
2013-11-20 09:30:00,54.5,35.8,29.98,SSW,208,4.5,7.4,49,0.00,,---,0.00,VWS V14.00,2013-11-20 15:30:00,
2013-11-20 09:44:00,55.0,35.7,29.98,SSW,198,5.8,7.8,48,0.00,,---,0.00,VWS V14.00,2013-11-20 15:44:00,
2013-11-20 09:50:00,56.5,36.5,29.98,SSE,167,6.3,8.7,47,0.00,,---,0.00,VWS V14.00,2013-11-20 15:50:00,
2013-11-20 10:04:00,57.2,36.6,29.98,South,190,4.0,9.6,46,0.00,,---,0.00,VWS V14.00,2013-11-20 16:04:00,
2013-11-20 10:10:00,57.7,36.6,29.98,South,184,4.0,10.1,45,0.00,,---,0.00,VWS V14.00,2013-11-20 16:10:00,
2013-11-20 10:24:00,58.1,36.9,29.98,South,177,5.4,8.7,45,0.00,,---,0.00,VWS V14.00,2013-11-20 16:24:00,
2013-11-20 10:30:00,58.3,37.0,29.98,SSE,154,4.9,8.3,45,0.00,,---,0.00,VWS V14.00,2013-11-20 16:30:00,
2013-11-20 10:40:00,58.8,37.5,29.98,SSE,156,3.6,8.7,45,0.00,,---,0.00,VWS V14.00,2013-11-20 16:40:00,
2013-11-20 10:50:00,59.7,38.4,29.98,South,186,6.9,8.7,45,0.00,,---,0.00,VWS V14.00,2013-11-20 16:50:00,
2013-11-20 11:00:00,60.3,38.3,29.98,SE,143,5.8,11.0,44,0.00,,---,0.00,VWS V14.00,2013-11-20 17:00:00,
2013-11-20 11:10:00,60.4,38.4,29.98,South,188,5.4,11.0,44,0.00,,---,0.00,VWS V14.00,2013-11-20 17:10:00,
2013-11-20 11:20:00,60.4,39.0,29.98,South,170,4.9,9.6,45,0.00,,---,0.00,VWS V14.00,2013-11-20 17:20:00,
2013-11-20 11:30:00,60.4,39.0,29.98,South,170,5.4,10.1,45,0.00,,---,0.00,VWS V14.00,2013-11-20 17:30:00,
2013-11-20 11:40:00,60.8,39.3,29.95,South,180,2.7,8.7,45,0.00,,---,0.00,VWS V14.00,2013-11-20 17:40:00,
2013-11-20 11:50:00,61.2,40.2,29.95,South,184,7.4,12.1,46,0.00,,---,0.00,VWS V14.00,2013-11-20 17:50:00,
2013-11-20 12:00:00,61.9,40.9,29.95,SSE,148,6.3,10.5,46,0.00,,---,0.00,VWS V14.00,2013-11-20 18:00:00,
2013-11-20 12:10:00,62.1,41.1,29.95,SW,218,4.9,15.4,46,0.00,,---,0.00,VWS V14.00,2013-11-20 18:10:00,
2013-11-20 12:20:00,63.1,42.6,29.95,SSW,198,7.8,11.0,47,0.00,,---,0.00,VWS V14.00,2013-11-20 18:20:00,
2013-11-20 12:30:00,63.7,42.5,29.92,SSW,202,5.8,10.1,46,0.00,,---,0.00,VWS V14.00,2013-11-20 18:30:00,
2013-11-20 12:40:00,64.0,42.9,29.92,SSE,150,2.7,11.0,46,0.00,,---,0.00,VWS V14.00,2013-11-20 18:40:00,
2013-11-20 12:50:00,63.5,42.9,29.92,SE,138,6.3,12.1,47,0.00,,---,0.00,VWS V14.00,2013-11-20 18:50:00,
2013-11-20 13:00:00,63.3,43.3,29.92,SE,139,4.9,12.1,48,0.00,,---,0.00,VWS V14.00,2013-11-20 19:00:00,
2013-11-20 13:10:00,63.5,43.5,29.92,SW,224,5.8,11.0,48,0.00,,---,0.00,VWS V14.00,2013-11-20 19:10:00,
2013-11-20 13:20:00,63.7,43.6,29.92,SSE,164,4.5,12.5,48,0.00,,---,0.00,VWS V14.00,2013-11-20 19:20:00,
2013-11-20 13:30:00,64.0,44.5,29.89,West,268,4.5,11.0,49,0.00,,---,0.00,VWS V14.00,2013-11-20 19:30:00,
2013-11-20 13:40:00,64.4,45.4,29.89,South,187,5.4,10.5,50,0.00,,---,0.00,VWS V14.00,2013-11-20 19:40:00,
2013-11-20 13:50:00,64.8,45.7,29.89,SSW,197,6.7,10.1,50,0.00,,---,0.00,VWS V14.00,2013-11-20 19:50:00,
2013-11-20 14:00:00,65.1,46.6,29.86,SE,139,5.8,12.1,51,0.00,,---,0.00,VWS V14.00,2013-11-20 20:00:00,
2013-11-20 14:10:00,65.5,46.9,29.86,SSW,197,4.0,9.2,51,0.00,,---,0.00,VWS V14.00,2013-11-20 20:10:00,
2013-11-20 14:20:00,65.8,47.2,29.86,SSE,165,6.3,10.1,51,0.00,,---,0.00,VWS V14.00,2013-11-20 20:20:00,
2013-11-20 14:30:00,66.0,47.4,29.86,SE,131,3.1,10.5,51,0.00,,---,0.00,VWS V14.00,2013-11-20 20:30:00,
2013-11-20 14:40:00,66.2,47.6,29.86,South,189,5.4,11.0,51,0.00,,---,0.00,VWS V14.00,2013-11-20 20:40:00,
2013-11-20 14:50:00,66.2,47.6,29.86,SSW,198,2.7,9.2,51,0.00,,---,0.00,VWS V14.00,2013-11-20 20:50:00,
2013-11-20 15:10:00,65.7,47.6,29.86,SE,139,0.0,6.7,52,0.00,,---,0.00,VWS V14.00,2013-11-20 21:10:00,
2013-11-20 15:20:00,65.8,48.2,29.86,SW,214,6.3,6.7,53,0.00,,---,0.00,VWS V14.00,2013-11-20 21:20:00,
2013-11-20 15:30:00,66.0,48.4,29.86,SSE,158,4.0,6.9,53,0.00,,---,0.00,VWS V14.00,2013-11-20 21:30:00,
2013-11-20 15:40:00,66.2,49.1,29.86,SE,137,4.9,6.9,54,0.00,,---,0.00,VWS V14.00,2013-11-20 21:40:00,
2013-11-20 15:50:00,66.4,49.7,29.86,SSE,151,3.1,8.7,55,0.00,,---,0.00,VWS V14.00,2013-11-20 21:50:00,
2013-11-20 16:00:00,66.4,50.2,29.89,South,187,6.7,9.2,56,0.00,,---,0.00,VWS V14.00,2013-11-20 22:00:00,
2013-11-20 16:10:00,66.2,50.1,29.89,SSW,201,3.1,10.5,56,0.00,,---,0.00,VWS V14.00,2013-11-20 22:10:00,
2013-11-20 16:20:00,66.0,50.4,29.89,SE,130,3.1,9.2,57,0.00,,---,0.00,VWS V14.00,2013-11-20 22:20:00,
2013-11-20 16:30:00,66.0,50.4,29.89,SSE,156,3.6,9.2,57,0.00,,---,0.00,VWS V14.00,2013-11-20 22:30:00,
2013-11-20 16:40:00,65.8,50.2,29.89,ESE,122,3.1,8.3,57,0.00,,---,0.00,VWS V14.00,2013-11-20 22:40:00,
2013-11-20 16:50:00,65.3,49.7,29.89,SE,143,3.6,7.8,57,0.00,,---,0.00,VWS V14.00,2013-11-20 22:50:00,
2013-11-20 17:00:00,64.8,49.2,29.89,SSE,159,3.6,9.2,57,0.00,,---,0.00,VWS V14.00,2013-11-20 23:00:00,
2013-11-20 17:10:00,64.0,48.5,29.89,SE,145,3.6,6.7,57,0.00,,---,0.00,VWS V14.00,2013-11-20 23:10:00,
2013-11-20 17:21:00,63.9,48.8,29.89,SE,129,2.7,6.3,58,0.00,,---,0.00,VWS V14.00,2013-11-20 23:21:00,
2013-11-20 17:30:00,63.7,48.6,29.89,ESE,123,2.7,7.4,58,0.00,,---,0.00,VWS V14.00,2013-11-20 23:30:00,
2013-11-20 17:40:00,63.7,49.1,29.89,SE,125,0.0,7.8,59,0.00,,---,0.00,VWS V14.00,2013-11-20 23:40:00,
2013-11-20 17:51:00,63.5,48.9,29.89,SSW,210,3.6,9.2,59,0.00,,---,0.00,VWS V14.00,2013-11-20 23:51:00,
2013-11-20 18:00:00,63.5,48.9,29.89,SSE,149,0.0,11.6,59,0.00,,---,0.00,VWS V14.00,2013-11-21 00:00:00,
2013-11-20 18:10:00,63.5,49.4,29.92,South,169,4.0,8.3,60,0.00,,---,0.00,VWS V14.00,2013-11-21 00:10:00,
2013-11-20 18:21:00,63.3,49.2,29.92,SSE,148,4.5,8.7,60,0.00,,---,0.00,VWS V14.00,2013-11-21 00:21:00,
2013-11-20 18:30:00,63.1,49.0,29.89,SSW,213,6.7,9.2,60,0.00,,---,0.00,VWS V14.00,2013-11-21 00:30:00,
2013-11-20 18:40:00,63.1,49.0,29.89,SE,131,0.0,12.1,60,0.00,,---,0.00,VWS V14.00,2013-11-21 00:40:00,
2013-11-20 18:50:00,63.1,49.0,29.89,SSE,147,5.4,9.2,60,0.00,,---,0.00,VWS V14.00,2013-11-21 00:50:00,
2013-11-20 19:00:00,63.1,49.0,29.92,SSE,162,5.8,9.2,60,0.00,,---,0.00,VWS V14.00,2013-11-21 01:00:00,
2013-11-20 19:10:00,63.1,49.0,29.92,SE,141,4.0,8.3,60,0.00,,---,0.00,VWS V14.00,2013-11-21 01:10:00,
2013-11-20 19:20:00,63.0,48.9,29.92,SSW,206,3.1,8.7,60,0.00,,---,0.00,VWS V14.00,2013-11-21 01:20:00,
2013-11-20 19:30:00,63.0,49.3,29.92,SE,139,3.1,10.5,61,0.00,,---,0.00,VWS V14.00,2013-11-21 01:30:00,
2013-11-20 19:41:00,62.6,48.5,29.92,SSW,193,4.9,8.7,60,0.00,,---,0.00,VWS V14.00,2013-11-21 01:41:00,
2013-11-20 19:50:00,62.2,48.6,29.92,SE,145,4.9,6.9,61,0.00,,---,0.00,VWS V14.00,2013-11-21 01:50:00,
2013-11-20 20:00:00,62.2,48.6,29.92,SSW,206,0.0,6.7,61,0.00,,---,0.00,VWS V14.00,2013-11-21 02:00:00,
2013-11-20 20:10:00,62.2,48.6,29.92,SE,144,3.6,9.2,61,0.00,,---,0.00,VWS V14.00,2013-11-21 02:10:00,
2013-11-20 20:20:00,62.1,48.5,29.92,SE,146,3.6,8.3,61,0.00,,---,0.00,VWS V14.00,2013-11-21 02:20:00,
2013-11-20 20:30:00,62.1,48.5,29.92,SSE,167,3.1,6.9,61,0.00,,---,0.00,VWS V14.00,2013-11-21 02:30:00,
2013-11-20 20:40:00,62.2,49.1,29.92,ESE,109,4.0,6.7,62,0.00,,---,0.00,VWS V14.00,2013-11-21 02:40:00,
2013-11-20 20:50:00,62.2,49.1,29.92,South,180,3.6,6.7,62,0.00,,---,0.00,VWS V14.00,2013-11-21 02:50:00,
2013-11-20 21:00:00,62.4,49.2,29.95,SSW,194,4.9,7.4,62,0.00,,---,0.00,VWS V14.00,2013-11-21 03:00:00,
2013-11-20 21:10:00,62.6,49.8,29.92,SE,145,3.6,8.7,63,0.00,,---,0.00,VWS V14.00,2013-11-21 03:10:00,
2013-11-20 21:20:00,62.8,50.0,29.92,SSW,212,7.4,7.8,63,0.00,,---,0.00,VWS V14.00,2013-11-21 03:20:00,
2013-11-20 21:30:00,62.8,50.0,29.92,SSE,155,3.6,9.2,63,0.00,,---,0.00,VWS V14.00,2013-11-21 03:30:00,
2013-11-20 21:40:00,62.8,50.0,29.92,SSW,192,3.1,8.7,63,0.00,,---,0.00,VWS V14.00,2013-11-21 03:40:00,
2013-11-20 21:50:00,63.0,50.6,29.92,South,180,4.9,7.8,64,0.00,,---,0.00,VWS V14.00,2013-11-21 03:50:00,
2013-11-20 22:00:00,63.0,50.6,29.95,SSW,205,4.9,6.9,64,0.00,,---,0.00,VWS V14.00,2013-11-21 04:00:00,
2013-11-20 22:10:00,63.0,50.6,29.95,SSW,197,3.1,8.3,64,0.00,,---,0.00,VWS V14.00,2013-11-21 04:10:00,
2013-11-20 22:22:00,63.0,50.6,29.95,SSW,194,5.4,6.9,64,0.00,,---,0.00,VWS V14.00,2013-11-21 04:22:00,
2013-11-20 22:30:00,62.8,50.8,29.95,SE,144,0.0,6.7,65,0.00,,---,0.00,VWS V14.00,2013-11-21 04:30:00,
2013-11-20 22:40:00,62.8,50.8,29.95,SE,125,3.1,8.7,65,0.00,,---,0.00,VWS V14.00,2013-11-21 04:40:00,
2013-11-20 22:50:00,62.8,50.8,29.95,SSE,153,4.5,7.8,65,0.00,,---,0.00,VWS V14.00,2013-11-21 04:50:00,
2013-11-20 23:00:00,62.8,51.3,29.92,South,191,4.0,7.8,66,0.00,,---,0.00,VWS V14.00,2013-11-21 05:00:00,
2013-11-20 23:12:00,62.8,51.3,29.95,SE,146,2.7,6.7,66,0.00,,---,0.00,VWS V14.00,2013-11-21 05:12:00,
2013-11-20 23:22:00,62.8,51.7,29.95,SSE,168,4.9,6.3,67,0.00,,---,0.00,VWS V14.00,2013-11-21 05:22:00,
2013-11-20 23:30:00,62.2,51.2,29.95,SE,132,4.5,6.7,67,0.00,,---,0.00,VWS V14.00,2013-11-21 05:30:00,
2013-11-20 23:40:00,61.7,51.8,29.95,South,176,6.7,6.7,70,0.00,,---,0.00,VWS V14.00,2013-11-21 05:40:00,
2013-11-20 23:50:00,61.5,52.0,29.95,SE,128,4.5,6.7,71,0.00,,---,0.00,VWS V14.00,2013-11-21 05:50:00,